Location: Newark
(46.8500°N, 5.1667°E)
Time: 22:10:49
(UTC+00:00)

ISS - Pass Details

Date: 26 September 2019
Orbit: 411 x 421 km, 51.6° (Epoch: 16 October)

Event Time Altitude Azimuth Distance (km) Brightness Sun altitude
Rises 19:21:22 0° 278° (W) 2,343 1.5 -19.6°
Reaches altitude 10° 19:23:34 10° 288° (WNW) 1,481 0.2 -19.9°
Maximum altitude 19:26:39 35° 356° (N) 693 -2.5 -20.4°
Enters shadow 19:27:06 33° 15° (NNE) 718 -2.6 -20.5°
